Overview Statistics Trail Chart Weather Telemetry Raw packets
 

This is the latest recevied weather packets stored in our database for station/object AB1AU. If no packets are shown the sender has not sent any weather packets the latest 10 day(s).

<< 22 23 24 25 26 27 28 >>
Time Temp. Humidity Pressure Rain* Wind** Luminosity Snow
1788467173 19.44° C 87% 1013.7 hPa 0 mm - 31 W/m² -
1788466868 19.44° C 87% 1013.7 hPa 0 mm - 33 W/m² -
1788466563 19.44° C 87% 1013.7 hPa 0 mm - 29 W/m² -
1788466262 19.44° C 87% 1013.9 hPa 0 mm - 41 W/m² -
1788465957 19.44° C 88% 1013.9 hPa 0 mm - 35 W/m² -
1788465652 19.44° C 88% 1014.1 hPa 0 mm - 35 W/m² -
1788465348 18.89° C 88% 1014 hPa 0 mm - 29 W/m² -
1788465044 18.89° C 88% 1014.1 hPa 0 mm - 29 W/m² -
1788464739 18.89° C 88% 1014.1 hPa 0 mm - 40 W/m² -
1788464434 18.89° C 89% 1014.3 hPa 0 mm - 48 W/m² -
1788464130 18.89° C 89% 1014.3 hPa 0 mm - 55 W/m² -
1788463825 18.89° C 89% 1014.3 hPa 0 mm - 37 W/m² -
1788463522 18.89° C 89% 1014.4 hPa 0 mm - 51 W/m² -
1788463222 18.89° C 89% 1014.3 hPa 0 mm - 49 W/m² -
1788462919 18.89° C 90% 1014.5 hPa 0 mm - 52 W/m² -
1788462613 18.89° C 90% 1014.6 hPa 0 mm - 41 W/m² -
1788462313 18.89° C 90% 1014.6 hPa 0 mm - 45 W/m² -
1788462012 18.89° C 91% 1014.7 hPa 0 mm - 45 W/m² -
1788461708 18.89° C 91% 1014.8 hPa 0 mm - 44 W/m² -
1788461403 18.89° C 91% 1014.8 hPa 0 mm - 43 W/m² -
1788461100 18.33° C 92% 1014.9 hPa 0 mm - 42 W/m² -
1788460794 18.33° C 92% 1014.9 hPa 0 mm - 53 W/m² -
1788460493 18.89° C 92% 1014.9 hPa 0 mm - 54 W/m² -
1788460187 18.33° C 92% 1015 hPa 0 mm - 78 W/m² -
1788459887 18.33° C 92% 1015.1 hPa 0 mm - 46 W/m² -

* Rain latest hour (hover to see other rain measurements)
** Current wind speed in m/s (hover to see current wind gust speed)